Preview of NWS' New Version of Forecast
This preview is not operational and should not be used for support decisions.

Regional Weather Roundup (RWR)

Issued by National Weather Service (NWS)

                            
000
ASUS43 KOAX 200810
RWRNE 

WEATHER ROUNDUP FOR NEBRASKA
NATIONAL WEATHER SERVICE OMAHA NE
300 AM CDT MON MAY 20 2019

NOTES: SATELLITE DATA IS BEING USED TO AUGMENT CLOUD COVER ABOVE
       12000 FEET.
       "FAIR" INDICATES FEW OR NO CLOUDS BELOW 12,000 FEET WITH NO
       SIGNIFICANT WEATHER AND/OR OBSTRUCTIONS TO VISIBILITY.

   
NEZ001>004-019>022-054>056-200900-
NEBRASKA PANHANDLE
  
CITY           SKY/WX    TMP DP  RH WIND       PRES   REMARKS
SCOTTSBLUFF    LGT RAIN  39  36  89 E14       30.03S WCI  31          
ALLIANCE       CLOUDY    38  34  85 E12       30.04R WCI  30          
CHADRON        LGT RAIN  39  36  89 E8        30.06S WCI  33          
GORDON         CLOUDY    38  35  91 E9        30.04F WCI  31          
KIMBALL        CLOUDY    37  32  83 E13G20    30.01S WCI  28          
SIDNEY         CLOUDY    38  31  76 E15       30.03R WCI  29          
$$
 
NEZ057>060-069>072-079>082-200900-
SOUTHWEST NEBRASKA
  
CITY           SKY/WX    TMP DP  RH WIND       PRES   REMARKS
NORTH PLATTE   CLOUDY    43  39  86 E13       30.06F                  
IMPERIAL       CLOUDY    42  32  67 E16       30.02S                  
LEXINGTON      MOCLDY    44  39  82 NE9       30.06F                  
MCCOOK         CLOUDY    45  36  70 E15       30.03F                  
OGALLALA       CLOUDY    42  35  75 E16G23    30.04S                  
$$
 
NEZ005>010-023>029-035>040-094-200900-
NORTH CENTRAL NEBRASKA
  
CITY           SKY/WX    TMP DP  RH WIND       PRES   REMARKS
VALENTINE      CLOUDY    41  36  82 NE6       30.09S                  
AINSWORTH      CLOUDY    39  39 100 E6        30.08F WCI  34          
BROKEN BOW     RAIN      43  39  86 NE8       30.08R                  
O'NEILL        MOCLDY    42  39  92 NE6       30.12S                  
ORD            MOCLDY    44  39  82 NE8       30.07F                  
THEDFORD       RAIN      40  38  93 E6        30.09R                  
$$
 
NEZ041-046>049-061>064-073>077-083>087-200900-
SOUTH CENTRAL NEBRASKA
  
CITY           SKY/WX    TMP DP  RH WIND       PRES   REMARKS
GRAND ISLAND   CLOUDY    46  38  73 NE13      30.07F                  
AURORA         CLOUDY    46  39  78 NE15      30.06F                  
HASTINGS       CLOUDY    46  39  76 NE14      30.07R                  
HEBRON         FAIR      48  41  75 N7        30.07R                  
HOLDREGE       MOCLDY    45  38  79 NE12      30.05F                  
YORK           MOCLDY    46  41  81 N16       30.08S                  
$$
 
NEZ011>018-030>034-042>045-200900-
NORTHEAST NEBRASKA
  
CITY           SKY/WX    TMP DP  RH WIND       PRES   REMARKS
NORFOLK        CLOUDY    43  38  82 NE7       30.10F                  
ALBION         CLOUDY    43  42  93 NE6       30.11R                  
BLAIR          FAIR      43  29  59 N10       30.09S                  
COLUMBUS       FAIR      44  38  79 NE8       30.11S                  
FREMONT        FAIR      45  38  79 N5        30.11S                  
TEKAMAH        FAIR      41  38  89 N7        30.11R                  
WAYNE          CLOUDY    40  37  88 CALM      30.12S                  
$$

NEZ050>053-065>068-078-088>093-200900-
SOUTHEAST NEBRASKA
  
CITY           SKY/WX    TMP DP  RH WIND       PRES   REMARKS
LINCOLN        FAIR      46  41  82 N10       30.09R                  
OMAHA EPPLEY   MOCLDY    47  41  80 N12       30.09R                  
BEATRICE       FAIR      49  43  78 N10       30.06R                  
FALLS CITY     FAIR      49  42  77 CALM      30.05R                  
NEBRASKA CITY  FAIR      48  44  84 N14G20    30.07S                  
PLATTSMOUTH    CLOUDY    47  41  79 N6        30.08S                  
$$

NEZ044-045-051>053-067-200900-
OMAHA AREA
  
CITY           SKY/WX    TMP DP  RH WIND       PRES   REMARKS
OMAHA EPPLEY   MOCLDY    47  41  80 N12       30.09R                  
BLAIR          FAIR      43  29  59 N10       30.09S                  
FREMONT        FAIR      45  38  79 N5        30.11S                  
MILLARD        CLOUDY    47  41  78 N6        30.09S                  
OFFUTT AFB     MOCLDY    46  39  76 N9        30.08R                  
PLATTSMOUTH    CLOUDY    47  41  79 N6        30.08S                  
WAHOO          CLOUDY    45  42  89 N12       30.10R                  
$$